CW3999 Weather Reports


time (UTC)temp
C
wind
direction
speed
KPH
gust
KPH
rain 1hr
cm
rain 24hr
cm
rain mn
cm
humidity
%
barometer
mb
20260507014922 17 287 3.2 14.5 0.00 0.00 0.00 39 1018.4
20260507014423 17 287 6.4 16.1 0.00 0.00 0.00 41 1018.3
20260507013921 17 287 6.4 16.1 0.00 0.00 0.00 42 1018.3
20260507013423 17 287 6.4 17.7 0.00 0.00 0.00 42 1018.4
20260507012418 18 275 6.4 14.5 0.00 0.00 0.00 40 1018.4
20260507011919 18 275 8.0 19.3 0.00 0.00 0.00 41 1018.3
20260507011419 18 275 9.7 19.3 0.00 0.00 0.00 41 1018.4
20260507010419 18 268 8.0 16.1 0.00 0.00 0.00 44 1018.3
20260507005913 18 267 8.0 16.1 0.00 0.00 0.00 46 1018.3
20260507005415 18 265 8.0 16.1 0.00 0.00 0.00 45 1018.3
20260507004916 18 265 3.2 16.1 0.00 0.00 0.00 43 1018.2
20260507004414 18 263 1.6 14.5 0.00 0.00 0.00 44 1018.2
20260507003915 19 261 1.6 14.5 0.00 0.00 0.00 44 1018.2
20260507003411 19 261 3.2 11.3 0.00 0.00 0.00 40 1018.1
20260507002902 19 261 6.4 14.5 0.00 0.00 0.00 35 1018.1
20260507001903 19 260 9.7 17.7 0.00 0.00 0.00 41 1018.2
20260507001402 19 259 8.0 17.7 0.00 0.00 0.00 42 1018.1
20260507000903 19 255 3.2 16.1 0.00 0.00 0.00 41 1018.1
20260506235901 20 245 1.6 14.5 0.00 0.00 0.00 39 1018.1
20260506235404 20 244 1.6 9.7 0.00 0.00 0.00 43 1018.0
20260506234855 20 243 4.8 12.9 0.00 0.00 0.00 44 1018.0
20260506234353 20 243 3.2 12.9 0.00 0.00 0.00 47 1018.0
20260506233355 20 240 0.0 0.0 0.00 0.00 0.00 51 1018.0
20260506232338 21 226 0.0 6.4 0.00 0.00 0.00 53 1017.9
20260506231829 21 226 0.0 6.4 0.00 0.00 0.00 52 1017.9
20260506231330 21 226 0.0 0.0 0.00 0.00 0.00 53 1018.0
20260506230835 21 226 0.0 0.0 0.00 0.00 0.00 52 1018.0
20260506225830 21 226 0.0 1.6 0.00 0.00 0.00 51 1018.0
20260506225328 21 226 0.0 1.6 0.00 0.00 0.00 51 1018.2
20260506224830 21 226 0.0 0.0 0.00 0.00 0.00 53 1018.2
20260506224331 21 226 0.0 0.0 0.00 0.00 0.00 53 1018.2
20260506223818 21 226 0.0 0.0 0.00 0.00 0.00 53 1018.3
20260506222819 22 226 0.0 0.0 0.00 0.00 0.00 53 1018.4
20260506222319 22 226 0.0 0.0 0.00 0.00 0.00 52 1018.4
20260506221819 22 226 0.0 0.0 0.00 0.00 0.00 52 1018.4
20260506221310 22 226 0.0 0.0 0.00 0.00 0.00 52 1018.4
20260506220804 22 226 0.0 0.0 0.00 0.00 0.00 51 1018.5
20260506220303 21 226 0.0 0.0 0.00 0.00 0.00 52 1018.5
20260506215804 21 226 0.0 0.0 0.00 0.00 0.00 53 1018.5
20260506215306 22 226 0.0 0.0 0.00 0.00 0.00 51 1018.5
20260506214802 21 226 0.0 0.0 0.00 0.00 0.00 53 1018.6
20260506214304 22 227 0.0 0.0 0.00 0.00 0.00 52 1018.5
20260506212803 21 227 0.0 0.0 0.00 0.00 0.00 50 1018.6
20260506212306 21 227 0.0 0.0 0.00 0.00 0.00 49 1018.5
20260506211804 21 227 0.0 0.0 0.00 0.00 0.00 51 1018.6
20260506211302 21 227 0.0 0.0 0.00 0.00 0.00 51 1018.7
20260506210804 21 227 0.0 0.0 0.00 0.00 0.00 46 1018.7
20260506210301 21 227 0.0 0.0 0.00 0.00 0.00 48 1018.8
20260506205802 20 227 0.0 0.0 0.00 0.00 0.00 47 1018.8
20260506205305 20 227 0.0 0.0 0.00 0.00 0.00 48 1018.9
20260506204801 20 227 0.0 0.0 0.00 0.00 0.00 49 1018.9
20260506204302 20 227 0.0 0.0 0.00 0.00 0.00 45 1018.8
20260506203802 20 227 0.0 0.0 0.00 0.00 0.00 50 1018.9
20260506203303 20 227 0.0 0.0 0.00 0.00 0.00 47 1018.9
20260506202804 20 227 0.0 0.0 0.00 0.00 0.00 42 1018.8
20260506202306 20 227 0.0 0.0 0.00 0.00 0.00 42 1018.7
20260506201804 20 230 0.0 0.0 0.00 0.00 0.00 43 1018.7
20260506201304 20 234 0.0 0.0 0.00 0.00 0.00 45 1018.7
20260506200803 20 234 0.0 0.0 0.00 0.00 0.00 44 1018.8
20260506200302 20 234 0.0 0.0 0.00 0.00 0.00 42 1018.9
20260506195803 20 234 0.0 0.0 0.00 0.00 0.00 42 1019.0
20260506195306 19 234 0.0 0.0 0.00 0.00 0.00 34 1019.0
20260506194804 19 234 0.0 0.0 0.00 0.00 0.00 44 1019.1
20260506194303 19 235 0.0 0.0 0.00 0.00 0.00 39 1019.1
20260506193803 19 235 0.0 0.0 0.00 0.00 0.00 36 1019.2
20260506193304 19 235 0.0 0.0 0.00 0.00 0.00 36 1019.2
20260506192305 18 235 0.0 0.0 0.00 0.00 0.00 35 1019.3
20260506191800 18 235 0.0 0.0 0.00 0.00 0.00 32 1019.3
20260506191303 18 235 0.0 0.0 0.00 0.00 0.00 37 1019.3
20260506190802 18 235 0.0 0.0 0.00 0.00 0.00 30 1019.2
20260506190302 18 235 0.0 0.0 0.00 0.00 0.00 34 1019.2
20260506185800 18 235 0.0 0.0 0.00 0.00 0.00 37 1019.2
20260506185302 18 235 0.0 0.0 0.00 0.00 0.00 36 1019.2
20260506184803 18 235 0.0 0.0 0.00 0.00 0.00 36 1019.2
20260506184304 18 235 0.0 0.0 0.00 0.00 0.00 28 1019.2
20260506183802 18 235 0.0 0.0 0.00 0.00 0.00 27 1019.2
20260506183302 18 235 0.0 0.0 0.00 0.00 0.00 24 1019.1
20260506182802 17 235 0.0 0.0 0.00 0.00 0.00 23 1019.1
20260506182301 17 235 0.0 0.0 0.00 0.00 0.00 16 1019.1
20260506181802 17 235 0.0 0.0 0.00 0.00 0.00 16 1019.0
20260506181300 17 235 0.0 0.0 0.00 0.00 0.00 14 1019.1
20260506180804 17 235 0.0 0.0 0.00 0.00 0.00 11 1019.2
20260506180303 17 235 0.0 0.0 0.00 0.00 0.00 10 1019.2
20260506175804 17 235 0.0 0.0 0.00 0.00 0.00 7 1019.2
20260506175306 17 235 0.0 0.0 0.00 0.00 0.00 5 1019.2
20260506174800 17 235 0.0 0.0 0.00 0.00 0.00 100 1019.2
20260506174302 16 235 0.0 0.0 0.00 0.00 0.00 100 1019.2
20260506173802 16 235 0.0 0.0 0.00 0.00 0.00 100 1019.3
20260506173302 16 235 0.0 0.0 0.00 0.00 0.00 100 1019.2
20260506172802 16 235 0.0 0.0 0.00 0.00 0.00 100 1019.1
20260506172307 16 235 0.0 0.0 0.00 0.00 0.00 100 1019.1
20260506171804 15 236 0.0 0.0 0.00 0.00 0.00 100 1019.1
20260506170804 15 236 0.0 0.0 0.00 0.00 0.00 100 1019.0
20260506170304 15 236 0.0 0.0 0.00 0.00 0.00 100 1019.1
20260506165803 15 236 0.0 0.0 0.00 0.00 0.00 100 1019.0
20260506165305 15 236 0.0 0.0 0.00 0.00 0.00 100 1019.0
20260506164803 15 236 0.0 0.0 0.00 0.00 0.00 100 1019.1
20260506164301 14 236 0.0 0.0 0.00 0.00 0.00 100 1019.2
20260506163803 14 235 0.0 0.0 0.00 0.00 0.00 100 1019.2
20260506163302 14 235 0.0 0.0 0.00 0.00 0.00 100 1019.2
20260506162802 14 235 0.0 0.0 0.00 0.00 0.00 100 1019.1
20260506162302 14 235 0.0 0.0 0.00 0.00 0.00 100 1019.2
20260506161802 14 235 0.0 0.0 0.00 0.00 0.00 100 1019.2
20260506160804 14 235 0.0 0.0 0.00 0.00 0.00 100 1019.0
20260506160300 14 235 0.0 0.0 0.00 0.00 0.00 100 1019.0
20260506155801 14 235 0.0 0.0 0.00 0.00 0.00 100 1018.8
20260506155305 13 235 0.0 0.0 0.00 0.00 0.00 100 1018.8
20260506154801 13 235 0.0 0.0 0.00 0.00 0.00 100 1018.9
20260506153802 13 235 0.0 0.0 0.00 0.00 0.00 100 1018.6
20260506153310 13 235 0.0 0.0 0.00 0.00 0.00 100 1018.7
20260506152803 13 235 0.0 0.0 0.00 0.00 0.00 100 1018.5
20260506152305 13 235 0.0 0.0 0.00 0.00 0.00 100 1018.5
20260506151802 13 235 0.0 0.0 0.00 0.00 0.00 100 1018.5
20260506150804 13 235 0.0 0.0 0.00 0.00 0.00 100 1019.0
20260506150305 13 235 0.0 0.0 0.00 0.00 0.00 100 1019.1
20260506145802 13 235 0.0 0.0 0.00 0.00 0.00 100 1019.1
20260506145305 13 235 0.0 0.0 0.00 0.00 0.00 100 1019.2
20260506144303 13 235 0.0 0.0 0.00 0.00 0.00 100 1019.1
20260506143303 13 235 0.0 0.0 0.00 0.00 0.00 100 1019.0
20260506142803 13 235 0.0 0.0 0.00 0.00 0.00 100 1018.9
20260506142305 13 235 0.0 0.0 0.00 0.00 0.00 100 1018.9
20260506141301 12 235 0.0 0.0 0.00 0.00 0.00 100 1018.6
20260506135802 12 235 0.0 0.0 0.00 0.00 0.00 100 1018.1
20260506134801 12 235 0.0 0.0 0.00 0.00 0.00 100 1018.2
20260506133803 12 235 0.0 0.0 0.00 0.00 0.00 100 1018.2
20260506133303 12 235 0.0 0.0 0.00 0.00 0.00 100 1018.1
20260506132807 12 235 0.0 0.0 0.00 0.00 0.00 100 1018.1
20260506132307 12 235 0.0 0.0 0.00 0.00 0.00 100 1018.1
20260506131802 12 235 0.0 0.0 0.00 0.00 0.00 100 1018.1
20260506131303 12 235 0.0 0.0 0.00 0.00 0.00 100 1018.0
20260506130802 12 235 0.0 0.0 0.00 0.00 0.00 100 1018.0
20260506130303 12 235 0.0 0.0 0.00 0.00 0.00 100 1017.8
20260506125803 13 235 0.0 0.0 0.00 0.00 0.00 100 1017.8
20260506125304 13 235 0.0 0.0 0.00 0.00 0.00 100 1017.7
20260506124302 13 235 0.0 0.0 0.00 0.00 0.00 100 1017.6
20260506123304 13 235 0.0 0.0 0.00 0.00 0.00 100 1017.5
20260506122804 13 235 0.0 0.0 0.00 0.00 0.00 100 1017.5
20260506122301 13 235 0.0 0.0 0.00 0.00 0.00 100 1017.5
20260506121803 13 235 0.0 0.0 0.00 0.00 0.00 100 1017.6
20260506121302 13 235 0.0 0.0 0.00 0.00 0.00 100 1017.6
20260506120802 13 235 0.0 0.0 0.00 0.00 0.00 100 1017.6
20260506120302 13 235 0.0 0.0 0.00 0.00 0.00 100 1017.6
20260506115803 13 235 0.0 0.0 0.00 0.00 0.00 100 1017.5
20260506115306 13 235 0.0 0.0 0.00 0.00 0.00 100 1017.6
20260506114804 13 235 0.0 0.0 0.00 0.00 0.00 100 1017.6
20260506114303 13 235 0.0 0.0 0.00 0.00 0.00 100 1017.4
20260506113802 13 235 0.0 0.0 0.00 0.00 0.00 100 1017.4
20260506113303 13 235 0.0 0.0 0.00 0.00 0.00 100 1017.4
20260506112305 13 235 0.0 0.0 0.00 0.00 0.00 100 1017.4
20260506111802 13 235 0.0 0.0 0.00 0.00 0.00 100 1017.3
20260506111303 13 235 0.0 0.0 0.00 0.00 0.00 100 1017.3
20260506110803 13 235 0.0 0.0 0.00 0.00 0.00 100 1017.3
20260506110304 13 235 0.0 0.0 0.00 0.00 0.00 100 1017.2
20260506105803 13 235 0.0 0.0 0.00 0.00 0.00 100 1017.0
20260506105305 13 235 0.0 0.0 0.00 0.00 0.00 100 1017.0
20260506104802 13 235 0.0 0.0 0.00 0.00 0.00 100 1016.9
20260506103735 13 235 0.0 0.0 0.00 0.00 0.00 100 1016.7
20260506103231 13 235 0.0 0.0 0.00 0.00 0.00 100 1016.7
20260506102731 13 235 0.0 0.0 0.00 0.00 0.00 100 1016.6
20260506102230 13 235 0.0 0.0 0.00 0.00 0.00 100 1016.6
20260506101730 13 235 0.0 0.0 0.00 0.00 0.00 100 1016.4
20260506101230 13 235 0.0 0.0 0.00 0.00 0.00 100 1016.4
20260506100730 13 235 0.0 0.0 0.00 0.00 0.00 100 1016.3
20260506100229 13 235 0.0 0.0 0.00 0.00 0.00 100 1016.2
20260506095730 13 235 0.0 0.0 0.00 0.00 0.00 100 1016.2
20260506095230 13 235 0.0 0.0 0.00 0.00 0.00 100 1016.2
20260506094215 13 235 0.0 0.0 0.00 0.00 0.00 100 1016.2
20260506093711 13 235 0.0 0.0 0.00 0.00 0.00 100 1016.1
20260506093207 13 235 0.0 0.0 0.00 0.00 0.00 100 1016.1
20260506092704 13 235 0.0 0.0 0.00 0.00 0.00 100 1016.0
20260506092203 13 235 0.0 0.0 0.00 0.00 0.00 100 1016.0
20260506091703 13 235 0.0 0.0 0.00 0.00 0.00 100 1016.1
20260506091203 14 235 0.0 0.0 0.00 0.00 0.00 100 1016.0
20260506090203 14 235 0.0 0.0 0.00 0.00 0.00 100 1016.0
20260506084702 14 235 0.0 0.0 0.00 0.00 0.00 100 1015.9
20260506084202 14 235 0.0 0.0 0.00 0.00 0.00 100 1015.9
20260506083704 14 235 0.0 0.0 0.00 0.00 0.00 100 1015.9
20260506083204 14 235 0.0 0.0 0.00 0.00 0.00 100 1015.9
20260506082703 14 235 0.0 0.0 0.00 0.00 0.00 100 1015.9
20260506082202 14 235 0.0 0.0 0.00 0.00 0.00 100 1015.9
20260506081647 14 235 0.0 0.0 0.00 0.00 0.00 100 1015.9
20260506080647 14 235 0.0 0.0 0.00 0.00 0.00 100 1015.8
20260506080143 14 235 0.0 0.0 0.00 0.00 0.00 100 1015.8
20260506073130 14 235 0.0 0.0 0.00 0.00 0.00 100 1015.6
20260506072630 14 235 0.0 0.0 0.00 0.00 0.00 100 1015.5
20260506071630 14 235 0.0 0.0 0.00 0.00 0.00 100 1015.4
20260506071130 14 235 0.0 0.0 0.00 0.00 0.00 100 1015.4
20260506070629 14 235 0.0 0.0 0.00 0.00 0.00 100 1015.4
20260506070130 14 235 0.0 0.0 0.00 0.00 0.00 100 1015.4
20260506062103 14 235 0.0 0.0 0.00 0.00 0.00 100 1015.3
20260506061101 14 235 0.0 0.0 0.00 0.00 0.00 100 1015.2
20260506060603 14 235 0.0 0.0 0.00 0.00 0.00 100 1015.2
20260506051101 15 235 0.0 0.0 0.00 0.00 0.00 100 1015.0
20260506050103 15 235 0.0 0.0 0.00 0.00 0.00 100 1014.9
20260506045102 15 235 0.0 0.0 0.00 0.00 0.00 100 1014.9
20260506044602 15 235 0.0 0.0 0.00 0.00 0.00 3 1014.8
20260506043601 15 235 0.0 0.0 0.00 0.00 0.00 12 1014.7
20260506043101 15 235 0.0 0.0 0.00 0.00 0.00 17 1014.7
20260506042100 15 235 0.0 0.0 0.00 0.00 0.00 26 1014.5
20260506041603 16 235 0.0 0.0 0.00 0.00 0.00 28 1014.4
20260506041102 16 235 0.0 0.0 0.00 0.00 0.00 31 1014.3
20260506040603 16 235 0.0 0.0 0.00 0.00 0.00 33 1014.3
20260506040101 16 235 0.0 0.0 0.00 0.00 0.00 33 1014.3
20260506035602 16 235 0.0 0.0 0.00 0.00 0.00 32 1014.2
20260506035102 16 235 0.0 0.0 0.00 0.00 0.00 31 1014.2
20260506034101 16 235 0.0 0.0 0.00 0.00 0.00 28 1014.0
20260506033603 16 235 0.0 0.0 0.00 0.00 0.00 29 1013.9
20260506033104 16 235 0.0 0.0 0.00 0.00 0.00 30 1013.9
20260506032603 17 235 0.0 0.0 0.00 0.00 0.00 33 1013.8
20260506032102 17 235 0.0 0.0 0.00 0.00 0.00 35 1013.8
20260506031602 17 235 0.0 0.0 0.00 0.00 0.00 36 1013.8
20260506031102 17 235 0.0 0.0 0.00 0.00 0.00 37 1013.8
20260506030100 17 235 0.0 0.0 0.00 0.00 0.00 41 1013.7
20260506025103 17 235 0.0 0.0 0.00 0.00 0.00 41 1013.6
20260506024604 17 235 0.0 0.0 0.00 0.00 0.00 40 1013.5
20260506024103 17 235 0.0 0.0 0.00 0.00 0.00 41 1013.5
20260506023603 17 235 0.0 0.0 0.00 0.00 0.00 42 1013.5
20260506022604 17 235 0.0 0.0 0.00 0.00 0.00 41 1013.4
20260506022102 17 235 0.0 0.0 0.00 0.00 0.00 41 1013.4
20260506021604 17 235 0.0 0.0 0.00 0.00 0.00 42 1013.4
20260506020601 17 235 0.0 0.0 0.00 0.00 0.00 43 1013.5
20260506020101 17 235 0.0 0.0 0.00 0.00 0.00 43 1013.5
20260506015602 17 236 0.0 0.0 0.00 0.00 0.00 45 1013.4